Regional Weather Roundup
Issued by NWS

Home | Current Version | Previous Version | Graphics & Text | Print | Product List | Glossary On
Versions: 1 2 3 4 5 6 7 8 9 10 11 12 13 14 15 16 17 18 19 20 21 22 23 24 25 26 27 28 29 30 31 32 33 34 35 36 37 38 39 40 41 42 43 44 45 46 47 48 49 50
000
ASUS43 KFSD 161010
RWRSD

WEATHER ROUNDUP FOR SOUTH DAKOTA
NATIONAL WEATHER SERVICE SIOUX FALLS SD
400 AM CST MON JAN 16 2017

NOTE: "FAIR" INDICATES FEW OR NO CLOUDS BELOW 12,000 FEET WITH NO
SIGNIFICANT WEATHER AND/OR OBSTRUCTIONS TO VISIBILITY.


SDZ001>005-009-010-012>017-161100-
NORTHWEST AND NORTH CENTRAL SOUTH DAKOTA

CITY           SKY/WX    TMP DP  RH WIND       PRES   REMARKS
BUFFALO          N/A     14   3  61 W10       29.98R WCI   1
FAITH            N/A     11   5  77 NW13      30.04S WCI  -4
MOBRIDGE       CLOUDY     0  -6  76 CALM      30.05S
$$

SDZ012>016-024>037-041>051-057-063-072>074-161100-
SOUTHWEST AND SOUTH CENTRAL SOUTH DAKOTA

CITY           SKY/WX    TMP DP  RH WIND       PRES   REMARKS
RAPID CTY ARPT CLOUDY    21   9  59 NW10      30.04R WCI  10
PIERRE         CLOUDY     8   4  83 W8        30.08F WCI  -4
CUSTER         CLOUDY    25  15  66 NW3       30.01R
ELLSWORTH AFB  CLOUDY    25   8  48 NW5       30.04R WCI  19
PHILIP         CLOUDY    11   7  84 W8        30.08S WCI  -1
PINE RIDGE     CLOUDY    22  20  92 CALM      30.03F
SPEARFISH      FAIR      21   7  53 W8        30.06S WCI  12
WINNER         CLOUDY    20  16  84 CALM      30.07S
$$

SDZ004>011-016>023-039-040-161100-
NORTHEAST SOUTH DAKOTA

CITY           SKY/WX    TMP DP  RH WIND       PRES   REMARKS
ABERDEEN       CLOUDY    -2  -7  79 SW6       30.10S WCI -14
WATERTOWN      CLOUDY    11  10  96 S3        30.07F FOG
BROOKINGS      CLOUDY    16  13  88 SE5       30.10S WCI   9
SISSETON         N/A     20  15  81 W9        30.08S WCI   9
$$

SDZ017-020-022-023-036>040-048>070-161100-
SOUTHEAST SOUTH DAKOTA

CITY           SKY/WX    TMP DP  RH WIND       PRES   REMARKS
SIOUX FALLS    CLOUDY    24  19  81 NE3       30.11F
HURON          CLOUDY     9   6  88 CALM      30.11R
CHAMBERLAIN    CLOUDY    18  14  86 W3        30.08F
MITCHELL       CLOUDY    20  18  92 S5        30.11F WCI  13
YANKTON        PTCLDY    28  27  93 E5        30.09F WCI  23
$$

ABBREVIATIONS USED IN REMARKS
   TC - TEMPERATURE IN CELSIUS
  WCI - WIND CHILL INDEX
   HX - HEAT INDEX
  VSB - VISIBILITY





USA.gov is the U.S. government's official web portal to all federal, state and local government web resources and services.